STARLINK-32501, 61890

Orbit data source: Space-Track

STARLINK-32501, 61890 is a payload satellite owned by SpaceX/Seattle (US) in LEO that was launched on Sat, 09 Nov 2024 UTC via an FALCON 9 launch vehicle from the Air Force Western Test Range (AFWTR). Payload-class satellites include a variety of spacecraft equipped with specific instruments for various scientific and technological missions. These include communications satellites like Starlink; space stations such as the ISS; scientific satellites like the Hubble; Earth observation satellites from companies like Planet Labs, Umbra, and HawkEye 360; GPS; miniature CubeSats for education and research; and military/defense satellites.

Loading next visibility...
Identifier
61890, 2024-204S
Orbit
LEO
Country
Flag of USUS
Related business
Manufacturer
SpaceX/Seattle
Mission
Operational Commercial Communications
Bus & Motor
STARLINK V2M, Unknown motor
Mass
730 kg wet, ~700 kg dry
Launch date (UTC)
2024-11-09 (2 years ago)
Launch vehicle
FALCON 9
Launch site
Air Force Western Test Range (AFWTR)
Object type
Payload
Rocket body
Debris
Shape & HBR
Box + 2 Pan, 17.7 m
Radar Cross Section
33.884 m², Large (>1 m²)

Expand to show TLE details & history
Last TLE update: 1 day ago

TLE from 1 day ago
0 STARLINK-32501
1 61890U 24204S   26170.88018814  .00001399  00000-0  52551-4 0  9994
2 61890  53.1605  10.9811 0001160  92.3129 267.8006 15.34394407 90761
Epoch: 2026-06-19T21:07Z
TLE epoch observation values (Epoch: 2026-06-19T21:07:28.255Z)
Latitude
-0.00005°
Longitude
146.01052°
Altitude
463.652 km
Speed
7.636 km/s
True Right ascension
00h 43m 55s
True Declination
0° 00' 00"
Sunlit
Object was in daylight at epoch
Visualization orbit readout
Latitude
Unknown
Longitude
Unknown
Altitude
Unknown
Speed
Unknown
Apparent Right ascension
Unknown
Apparent Declination
Unknown
Sunlit
N/A
Visualization observer readout
Local Sidereal Time
08:32:27
Azimuth
Unknown
Elevation
Unknown
Doppler factor
Unknown
Orbital elements
Apogee altitude
463.77 km
Perigee altitude
462.183 km
Semi-major axis
6,841.114 km
Eccentricity
0.00012
Inclination
53.1605°
RAAN
10.9811°
Arg. of periapsis
92.3129°
True anomaly
267.78732°
Mean anomaly
267.8006°
Eccentric anomaly
267.79396°
Mean motion
3.83577 °/min
Orbital period
93.85 mins
BSTAR
0.000052551
Loading maneuver chart data...
Computing Atmospheric mass density...
Loading historical data...
Loading historical data...
Loading historical data...
Loading historical data...
Loading historical data...
Loading historical data...
Loading historical data...

Documentation

Showing up to 5 results
|